TIME,DELAY(SENSOR),PRES,OXYGEN,RAWTEMP,T(OPTODE),TCPHASE,FLUOR,BETA(BETA700),BETA(BETA412),BETA(BETA440),CDOM,C(CSC),ED(ED411.90),ED(ED443.80),ED(ED489.40),ED(ED554.70),LU(LU412.20),LU(LU443.80),LU(LU489.40),LU(LU555.00),COMP,TILTX,TILTY,CHECK
1372718309,5807,846.7100219726562000,154.7064971923828000,391.6897888183594000,10.8558597564697270,39.2516098022460940,51,92,88,79,78,10263,2146958217,2147516251,2147287972,2147492196,2147085421,2146931062,2147693074,2147122788,1291,-1,8,59729
1372721905,5808,969.7500000000000000,164.7767028808593800,470.8324890136719000,8.4316549301147460,39.7828102111816400,51,96,89,80,80,10263,2146960896,2147518948,2147295460,2147506715,2147088146,2146921252,2147711954,2147118875,2713,-1,8,5993
1372725505,5805,990.8800048828125000,164.5030975341797000,487.4132080078125000,7.9194679260253910,40.0857887268066400,52,99,88,79,81,10258,2146960731,2147519469,2147293275,2147511122,2147089362,2146924123,2147712621,2147124132,2642,-1,8,9147
1372729105,5804,996.5900268554688000,174.2982940673828000,487.6958007812500000,7.9107217788696290,39.3808403015136700,52,93,90,78,80,10261,2146964726,2147519442,2147296064,2147512274,2147089499,2146925394,2147715090,2147121398,3063,-1,8,48791
1372732705,5805,999.2399902343750000,167.6571044921875000,490.3622131347656000,7.8281898498535160,39.9033203125000000,52,104,89,77,80,10257,2146963273,2147520685,2147293394,2147512246,2147091044,2146923876,2147719030,2147120320,3473,-1,8,44649
1372736305,5805,1001.9899902343750000,176.8847961425781200,491.6369934082031000,7.7887158393859860,39.2675895690918000,51,95,89,79,79,10258,2146960064,2147520036,2147293586,2147512192,2147085741,2146921728,2147714340,2147122925,3410,-1,8,55891
1372739905,5807,996.8599853515625000,160.8305053710937500,494.9660949707031000,7.6855812072753910,40.4898490905761700,52,96,89,77,79,10259,2146960886,2147521170,2147296640,2147510043,2147086848,2146926646,2147714057,2147118985,3423,-1,8,46230
1372743505,5805,995.1199951171875000,154.4429016113281200,496.8230895996094000,7.6280207633972170,41.0135116577148440,51,95,89,78,80,10258,2146961618,2147519168,2147296292,2147514779,2147087241,2146922038,2147716178,2147121600,3477,-1,8,42883
1372747105,5808,995.4099731445312000,172.7487945556640600,498.4361877441406000,7.5780010223388670,39.6763496398925800,52,92,89,80,79,10256,2146961956,2147517330,2147294034,2147513664,2147089188,2146926299,2147715693,2147120210,214,-1,8,61294
1372750705,5806,997.9000244140625000,165.7991027832031200,498.5085144042969000,7.5757598876953125,40.1803817749023440,52,98,89,77,79,10249,2146961499,2147521426,2147297956,2147512521,2147087872,2146923190,2147716315,2147120950,3271,-1,8,41485
1372754305,5807,1000.4899902343750000,183.4636993408203000,497.0025024414062500,7.6224589347839355,38.9118690490722660,51,96,89,78,79,10254,2146964141,2147518345,2147296896,2147515410,2147087716,2146926674,2147714761,2147120786,338,-1,8,54099
1372757905,5807,1006.2399902343750000,182.4122009277343800,495.9104919433594000,7.6563100814819340,38.9630012512207000,52,97,89,79,81,10246,2146963401,2147518912,2147295323,2147511195,2147086774,2146928640,2147721545,2147119286,858,-1,8,10692
1372761505,5807,1007.2700195312500000,188.6629943847656200,496.3606872558594000,7.6423568725585940,38.5556106567382800,52,96,89,78,80,10252,2146960914,2147522258,2147298605,2147508278,2147086976,2146924507,2147713526,2147119360,966,-1,8,10876
1372765105,5806,1003.0100097656250000,187.5671997070312500,497.3017883300781000,7.6131801605224610,38.6442718505859400,51,93,90,78,79,10254,2146961234,2147518345,2147299245,2147510857,2147087040,2146921389,2147719305,2147124928,1062,-1,8,56315
1372768705,5805,1007.5599975585938000,165.0874938964843800,497.3888854980469000,7.6104769706726070,40.2133102416992200,51,93,89,79,80,10251,2146960438,2147521920,2147296393,2147513408,2147087305,2146921234,2147712704,2147123373,3299,-1,8,39291
1372772305,5804,1010.6099853515625000,172.3350982666015600,495.4552917480469000,7.6704220771789550,39.6546287536621100,52,97,89,79,80,10253,2146961133,2147521901,2147296146,2147508772,2147087862,2146924406,2147716452,2147120594,3433,-1,8,12872
1372775905,5806,1010.8699951171875000,176.8719940185547000,495.6094055175781000,7.6656451225280760,39.3375091552734400,51,94,88,78,80,10249,2146959488,2147520777,2147296402,2147510637,2147086482,2146921024,2147714843,2147120402,201,-1,8,27552
1372779505,5807,1003.7399902343750000,151.4915008544922000,497.0997009277344000,7.6194429397583010,41.2511100769043000,52,94,90,79,79,10252,2146959899,2147523392,2147297718,2147510043,2147087149,2146925110,2147714761,2147119625,101,-1,8,32791
1372783105,5806,1003.5599975585938000,180.1551055908203000,498.7915039062500000,7.5669808387756350,39.1668891906738300,51,99,89,81,79,10251,2146960548,2147518884,2147296100,2147508809,2147088082,2146924205,2147716946,2147120603,2916,-1,8,11828
1372786705,5807,997.5900268554688000,182.0111999511718800,500.4094848632812500,7.5167880058288570,39.0690803527832000,52,95,89,78,79,10253,2146960758,2147518820,2147296768,2147512475,2147087698,2146925796,2147717229,2147122569,100,-1,8,59768
1372790305,5805,998.7500000000000000,192.3854980468750000,501.2164001464844000,7.4917521476745605,38.3995704650878900,51,93,89,78,79,10247,2146960566,2147520539,2147295442,2147513042,2147088210,2146925394,2147714742,2147118345,2563,-1,8,16125
1372793905,5806,1001.0499877929688000,191.0153961181640600,502.2352905273437500,7.4601302146911620,38.5053596496582000,53,93,89,79,79,10252,2146962761,2147521508,2147296841,2147511259,2147089005,2146926464,2147714816,2147121051,3539,-1,8,49026
1372797505,5804,1002.0200195312500000,194.9783020019531200,501.6817932128906000,7.4773092269897460,38.2424888610839840,52,97,89,79,80,10246,2146960749,2147516617,2147297426,2147513673,2147085028,2146925632,2147718784,2147120960,2819,-1,8,53300
1372801105,5803,1001.0599975585938000,190.6618041992187500,501.8027954101562500,7.4735522270202640,38.5210418701171900,52,106,89,78,81,10242,2146964361,2147524059,2147298578,2147508635,2147086016,2146925275,2147714916,2147119433,3127,-1,8,1366
1372804705,5806,1003.0700073242188000,190.4810943603515600,500.7709045410156000,7.5055761337280270,38.5143814086914060,51,94,90,79,80,10243,2146960923,2147516928,2147297929,2147511305,2147087451,2146923876,2147718994,2147121545,61,-1,8,38200
1372808305,5807,1007.5200195312500000,186.4691009521484400,499.7410888671875000,7.5375227928161620,38.7587394714355500,51,94,89,79,80,10240,2146959149,2147522130,2147295405,2147512201,2147088640,2146928393,2147720786,2147122514,325,-1,8,28583
1372811905,5806,1001.6099853515625000,178.2418975830078000,500.5064086914062500,7.5137829780578610,39.3275299072265600,52,93,90,79,78,10240,2146960914,2147519689,2147296804,2147510637,2147087122,2146924525,2147715044,2147120137,146,-1,8,2821
1372815505,5805,1005.7100219726562000,193.3110046386718800,499.6460876464844000,7.5404710769653320,38.3129997253418000,51,95,89,79,79,10237,2146960731,2147519881,2147297728,2147511835,2147084187,2146925485,2147716653,2147121618,1047,-1,8,32188
1372819105,5805,1012.5900268554688000,189.8041992187500000,498.8334960937500000,7.5656781196594240,38.5246810913085940,51,96,90,80,80,10236,2146960704,2147521033,2147295424,2147510765,2147087753,2146922029,2147714148,2147122258,669,-1,8,12374
1372822705,5807,1014.3699951171875000,192.2283020019531200,498.3532104492187500,7.5805759429931640,38.3591499328613300,52,95,90,82,80,10240,2146960923,2147521782,2147297078,2147514834,2147086765,2146927021,2147717238,2147122358,726,-1,8,25129
1372826305,5805,1012.8400268554688000,192.1983947753906200,497.4271850585937500,7.6092920303344730,38.3449211120605500,51,93,90,79,79,10240,2146960832,2147520146,2147295661,2147511268,2147088667,2146918948,2147715894,2147120932,299,-1,8,6902
1372829905,5809,1005.4799804687500000,192.3359985351562500,499.7013854980469000,7.5387549400329590,38.3756294250488300,52,95,89,78,79,10237,2146958747,2147522486,2147296548,2147512000,2147088237,2146921691,2147715629,2147117878,987,-1,8,35302
1372833505,5805,1004.1400146484375000,186.7135009765625000,501.8483886718750000,7.4721360206604000,38.7795104980468750,52,95,89,78,80,10238,2146960356,2147520091,2147296118,2147512914,2147085741,2146921572,2147715867,2147120475,3336,-1,8,22656
1372837105,5808,998.5399780273438000,188.2743988037109400,502.5057983398437500,7.4517321586608890,38.6878318786621100,51,97,89,77,79,10237,2146961782,2147522724,2147297554,2147514230,2147086875,2146923702,2147720667,2147117229,456,-1,8,33657
1372840705,5805,996.0800170898438000,191.2877960205078000,504.5054016113281000,7.3896489143371580,38.5266990661621100,51,95,88,79,80,10235,2146962752,2147520594,2147301120,2147511360,2147085001,2146924269,2147715748,2147120832,3551,-1,8,60484
1372844305,5806,994.3900146484375000,190.8816986083984400,504.6400146484375000,7.3854680061340330,38.5560684204101560,52,95,91,78,79,10233,2146961517,2147520265,2147297024,2147515126,2147087570,2146920475,2147712813,2147120374,3426,-1,8,51271
1372847905,5806,1005.9799804687500000,197.3908996582031200,502.6394042968750000,7.4475860595703125,38.1070098876953100,51,92,89,79,80,10225,2146962962,2147518701,2147296338,2147513490,2147088585,2146924068,2147716964,2147120621,2965,-1,8,19046
1372851505,5804,1002.2800292968750000,186.9878997802734400,502.5076904296875000,7.4516739845275880,38.7729301452636700,51,97,89,78,81,10235,2146962688,2147518061,2147296064,2147512795,2147085851,2146923894,2147714742,2147119378,3177,-1,8,33144
1372855105,5803,1005.9500122070312000,185.2917938232422000,502.6057128906250000,7.4486331939697270,38.8870391845703100,51,93,90,78,79,10233,2146963739,2147521801,2147296219,2147511094,2147085229,2146919908,2147717549,2147123017,3342,-1,8,47119
1372858705,5807,1005.9000244140625000,182.7904968261718800,502.4617919921875000,7.4531002044677730,39.0512695312500000,52,93,88,79,81,10233,2146961691,2147521654,2147296996,2147511789,2147087698,2146922678,2147713097,2147117833,3,-1,8,38877
1372860056,5804,1006.4799804687500000,185.6150970458984400,502.4168090820312500,7.4544949531555180,38.8617210388183600,52,94,90,79,79,10220,2146963501,2147520365,2147298761,2147513563,2147085174,2146924370,2147714185,2147120365,3492,-1,8,59909
